This is the latest recevied weather packets stored in our database for station/object K1ADM. If no packets are shown the sender has not sent any weather packets the latest 10 day(s).
| Time | Temp. | Humidity | Pressure | Rain* | Wind** | Luminosity | Snow |
|---|---|---|---|---|---|---|---|
| 1777367703 | 3.89° C | 85% | 1023.9 hPa | 0 mm | - | - | - |
| 1777367403 | 3.89° C | 85% | 1023.7 hPa | 0 mm | - | - | - |
| 1777366803 | 3.89° C | 85% | 1023.6 hPa | 0 mm | - | - | - |
| 1777366503 | 3.89° C | 84% | 1023.6 hPa | 0 mm | - | - | - |
| 1777365604 | 3.89° C | 84% | 1023.4 hPa | 0 mm | - | - | - |
| 1777362303 | 4.44° C | 85% | 1023.1 hPa | 0 mm | - | - | - |
| 1777362003 | 3.89° C | 85% | 1023.1 hPa | 0 mm | - | - | - |
| 1777361703 | 4.44° C | 85% | 1023.2 hPa | 0 mm | - | - | - |
| 1777360503 | 4.44° C | 85% | 1023.1 hPa | 0 mm | - | - | - |
| 1777359003 | 4.44° C | 85% | 1023.4 hPa | 0 mm | - | - | - |
| 1777358103 | 5° C | 84% | 1023.5 hPa | 0 mm | - | - | - |
| 1777357204 | 5° C | 85% | 1023.6 hPa | 0 mm | - | - | - |
| 1777356604 | 4.44° C | 84% | 1023.6 hPa | 0 mm | - | - | - |
| 1777355103 | 5.56° C | 83% | 1023.7 hPa | 0 mm | - | - | - |
| 1777354804 | 5.56° C | 83% | 1023.7 hPa | 0 mm | - | - | - |
| 1777354503 | 5.56° C | 83% | 1023.7 hPa | 0 mm | - | - | - |
| 1777352404 | 6.11° C | 81% | 1024 hPa | 0 mm | - | - | - |
| 1777347303 | 7.78° C | 80% | 1024.3 hPa | 0 mm | - | - | - |
| 1777345504 | 7.78° C | 78% | 1024.3 hPa | 0 mm | - | - | - |
| 1777344603 | 8.33° C | 77% | 1024.4 hPa | 0 mm | - | - | - |
| 1777344304 | 8.33° C | 77% | 1024.4 hPa | 0 mm | - | - | - |
| 1777344003 | 8.33° C | 76% | 1024.4 hPa | 0 mm | - | - | - |
| 1777343403 | 8.89° C | 76% | 1024.2 hPa | 0 mm | - | - | - |
| 1777342503 | 8.89° C | 74% | 1024.2 hPa | 0 mm | - | - | - |
| 1777339502 | 10.56° C | 67% | 1023.8 hPa | 0 mm | - | - | - |
* Rain latest hour (hover to see other rain measurements)
** Current wind speed in m/s (hover to see current wind gust speed)